SL-14 R/B, 17178

Orbit data source: Space-Track

SL-14 R/B, 17178 is space debris in LEO originally from a launch on Tue, 02 Dec 1986 UTC launched from the Plesetsk Missile And Space Complex (PKMTR). Debris objects in space refer to the collection of defunct objects orbiting the Earth. Examples of debris include non-operational satellites, rocket bodies, and fragments generated from explosions, collisions, or faulty payload assembly.

Loading next visibility...
Identifier
17178, 1986-094B
Orbit
LEO
Country
Flag of CISCIS
Related business
Manufacturer
Yuzhnoe
Mission
Spacecraft
Bus & Motor
S5M, Unknown motor
Mass
1,600 kg wet, 1,600 kg dry
Launch date (UTC)
1986-12-02 (39 years ago)
Launch vehicle
Unknown
Launch site
Plesetsk Missile And Space Complex (PKMTR)
Object type
Payload
Rocket body
Debris
Shape & HBR
Cyl, 1.4 m
Radar Cross Section
7.351 m², Large (>1 m²)

Expand to show TLE details & history
Last TLE update: 16 hours ago

TLE from 16 hours ago
0 SL-14 R/B
1 17178U 86094B   25260.25240340 -.00000003  00000-0 -94628-4 0  9994
2 17178  82.6108 169.5153 0002791  16.5323 153.0463 12.42049323758721
Epoch: 2025-09-17T06:03Z
TLE epoch observation values (Epoch: 2025-09-17T06:03:27.653Z)
Latitude
10.27044°
Longitude
-99.12086°
Altitude
1,501.849 km
Speed
7.113 km/s
True Right ascension
23h 12m 42s
True Declination
10° 12' 57"
Sunlit
Object was in full shadow at epoch
Visualization orbit readout
Latitude
Unknown
Longitude
Unknown
Altitude
Unknown
Speed
Unknown
Apparent Right ascension
Unknown
Apparent Declination
Unknown
Sunlit
N/A
Visualization observer readout
Local Sidereal Time
14:32:38
Azimuth
Unknown
Elevation
Unknown
Doppler factor
Unknown
Orbital elements
Apogee altitude
1,497.474 km
Perigee altitude
1,493.079 km
Semi-major axis
7,873.413 km
Eccentricity
0.00028
Inclination
82.6108°
RAAN
169.5153°
Arg. of periapsis
16.5323°
True anomaly
153.06079°
Mean anomaly
153.0463°
Eccentric anomaly
153.05355°
Mean motion
3.10669 °/min
Orbital period
115.88 mins
BSTAR
-0.000094628
Loading maneuver chart data...
Computing Atmospheric mass density...
Loading historical data...
Loading historical data...
Loading historical data...
Loading historical data...
Loading historical data...
Loading historical data...
Loading historical data...
Other satellites on launch #94 in the year 1986 (1986-12-02 UTC)

Documentation

Showing up to 5 results
|